User: anonymous   Login
Location: Clinton NY
(43.0598°N, 75.3602°W)
Time: 22:49:01
(UTC-05:00)
Language:

Cosmos-2242 - Orbit

View from above orbital plane
View from above orbital plane
View from above satellite
View from above satellite

Ground track
Ground track

The orbit data is extracted from the following two-line orbital elements,

1 22626U 93024A   16044.22853892  .00000883  00000-0  94898-4 0  9991
2 22626  82.5243 143.6215 0017893 309.5465  50.4170 14.87346436233311
Epoch (UTC): 13 February 2016 05:29:05
Eccentricity: 0.0017893
inclination: 82.5243°
perigee height: 594 km
apogee height: 619 km
right ascension of ascending node: 143.6215°
argument of perigee: 309.5465°
revolutions per day: 14.87346436
mean anomaly at epoch: 50.4170°
orbit number at epoch: 23331

The dashed part of the orbit path shows where the satellite is in the earth's shadow,  

DLR